TimeEDT,TemperatureF,Dew PointF,Humidity,Sea Level PressureIn,VisibilityMPH,Wind Direction,Wind SpeedMPH,Gust SpeedMPH,PrecipitationIn,Events,Conditions,WindDirDegrees,DateUTC
12:55 AM,64.0,60.8,89,30.05,10.0,SSW,8.1,-,N/A,,Mostly Cloudy,210,2012-09-15 04:55:00
1:55 AM,63.3,60.8,91,30.03,10.0,South,8.1,-,N/A,,Mostly Cloudy,180,2012-09-15 05:55:00
2:55 AM,62.2,60.3,93,30.01,10.0,SSW,8.1,-,N/A,,Mostly Cloudy,210,2012-09-15 06:55:00
3:55 AM,61.9,60.1,94,29.99,10.0,SW,8.1,-,N/A,,Scattered Clouds,230,2012-09-15 07:55:00
4:55 AM,62.2,60.8,95,29.99,7.0,SW,8.1,-,N/A,,Mostly Cloudy,230,2012-09-15 08:55:00
5:55 AM,61.7,60.6,96,29.98,10.0,South,3.5,-,N/A,,Mostly Cloudy,190,2012-09-15 09:55:00
6:55 AM,62.1,60.3,94,30.00,7.0,West,6.9,-,N/A,,Mostly Cloudy,260,2012-09-15 10:55:00
7:49 AM,62.6,60.8,94,30.01,10.0,West,8.1,-,N/A,Rain,Light Rain Showers,260,2012-09-15 11:49:00
7:55 AM,63.3,60.6,91,30.01,10.0,West,6.9,-,0.00,Rain,Light Rain Showers,260,2012-09-15 11:55:00
8:09 AM,62.6,59.0,88,30.01,10.0,West,9.2,-,N/A,,Mostly Cloudy,270,2012-09-15 12:09:00
8:55 AM,63.5,57.7,81,30.02,10.0,West,6.9,-,0.00,,Mostly Cloudy,260,2012-09-15 12:55:00
9:55 AM,67.8,56.1,66,30.01,10.0,West,11.5,-,N/A,,Mostly Cloudy,270,2012-09-15 13:55:00
10:55 AM,70.9,54.0,55,30.00,10.0,West,10.4,18.4,N/A,,Scattered Clouds,280,2012-09-15 14:55:00
11:55 AM,72.3,51.3,47,29.99,10.0,West,13.8,21.9,N/A,,Scattered Clouds,280,2012-09-15 15:55:00
12:55 PM,73.2,48.7,42,29.98,10.0,NW,19.6,-,N/A,,Scattered Clouds,320,2012-09-15 16:55:00
1:55 PM,72.7,47.1,40,29.97,10.0,NW,16.1,23.0,N/A,,Scattered Clouds,320,2012-09-15 17:55:00
2:55 PM,71.4,45.9,40,29.97,10.0,NW,18.4,-,N/A,,Scattered Clouds,310,2012-09-15 18:55:00
3:55 PM,72.3,46.4,40,29.97,10.0,NW,15.0,-,N/A,,Scattered Clouds,320,2012-09-15 19:55:00
4:55 PM,69.4,43.3,39,29.97,10.0,NNW,18.4,26.5,N/A,,Scattered Clouds,330,2012-09-15 20:55:00
5:55 PM,67.6,43.3,41,29.99,10.0,WNW,15.0,20.7,N/A,,Partly Cloudy,300,2012-09-15 21:55:00
6:55 PM,63.3,43.5,48,30.01,10.0,WNW,11.5,-,N/A,,Partly Cloudy,300,2012-09-15 22:55:00
7:55 PM,60.4,43.7,54,30.03,10.0,WNW,8.1,-,N/A,,Partly Cloudy,290,2012-09-15 23:55:00
8:55 PM,58.3,43.7,58,30.04,10.0,WNW,8.1,-,N/A,,Clear,290,2012-09-16 00:55:00
9:55 PM,56.7,44.4,64,30.04,10.0,West,6.9,-,N/A,,Clear,280,2012-09-16 01:55:00
10:55 PM,55.2,44.8,68,30.04,10.0,West,5.8,-,N/A,,Clear,260,2012-09-16 02:55:00
11:55 PM,53.8,44.6,71,30.04,10.0,West,5.8,-,N/A,,Clear,280,2012-09-16 03:55:00